Starlink 32428

operational
NORAD ID: 61666 Int'l Des: 2024-193 Owner: SPXS Country: US Constellation: starlink
LEOCIRCULAR

Über Starlink 32428

Beschreibung wird geladen...

Live-Position

3D-Globus wird geladen...

Nächste Überflüge

Höhenverlauf

Altitude vs Time

uPlot chart will show altitude changes over time

Zweizeiliger Elementsatz

1 61666U 24193F 25259.20026683 .00000344 00000-0 23767-4 0 9994
2 61666 53.1602 181.3411 0001277 67.5863 292.5273 15.30171845 49812
Epoch: 16. Sept. 2025 • Age: 9 hours

Aktueller Status

Höhe 481.5 km
Geschwindigkeit 7.62 km/s
Subsatellitenpunkt -20.15°S, 176.7°E
Startdatum 26. Okt. 2024
Alter 0.8 years
Typ internet

Technische Details

Klassifizierung Payload
Masse 730.00 kg
Trockenmasse 700.00 kg
Gesamtmasse 730.00 kg
Länge 0.30 m
Durchmesser 4.10 m
Spannweite 29.00 m
Form Box + pan
Hersteller SPXS
Bus-Typ Starlink V2M
Phasenstatus In Orbit
Besitzer/Staat SPXS/US

Große Konstellationen

Loading constellations...